CAPE
1 0 0 0 0 0 0 0 0 0 0 0 0 0 0 0 0 0 0 0 0 0 0 0 0 0 0 0 0 0 0 0 0 0 0 0 0 0 0 0 0 0 0 0
1 0 0 0 0 1 0 0 0 0 0 0 0 0 0 0 0 0 0 0 0 0 0 0 0 0 0 0 0 0 0 0 0 0 0 0 0 0 0 0 0 0 0 0
1 0 0 0 0 0 0 0 0 0 0 0 0 0 0 0 0 0 0 0 0 0 0 0 0 0 0 0 0 0 0 0 0 0 0 0 0 0 0 0 0 0 0 0
1 0 0 0 0 0 0 0 0 0 0 0 0 0 0 0 0 0 0 0 0 0 0 0 0 0 0 0 0 0 0 0 0 0 0 0 0 0 0 0 0 0 0 0
1 0 0 0 0 0 0 0 0 0 0 0 0 0 0 0 0 0 0 0 0 0 0 0 0 0 0 0 0 0 0 0 0 0 0 0 0 0 0 0 0 32 0 0
1 0 0 0 0 0 0 0 0 0 0 0 0 0 0 0 0 0 0 0 0 0 0 0 0 0 0 0 0 0 0 0 0 0 0 0 0 0 0 1 171 159 1 30
1 0 0 0 0 0 0 0 0 0 0 0 0 0 0 0 0 0 0 0 0 0 0 0 0 0 0 0 0 0 0 0 0 0 0 9 0 0 0 179 214 186 111 96
1 0 0 0 0 0 0 0 0 0 0 0 0 0 0 0 0 0 0 0 0 0 0 0 0 0 0 0 0 0 0 0 0 0 0 0 0 0 0 0 8 200 160 150
1 0 0 0 0 0 0 0 0 0 0 0 0 0 0 0 0 0 0 0 0 0 0 0 0 0 0 0 0 0 0 0 0 0 0 0 0 0 0 0 0 171 255 200
0 0 0 0 0 0 0 0 0 0 0 0 0 0 0 0 0 0 0 0 0 0 0 0 0 0 0 0 0 0 0 0 0 0 0 0 0 0 0 0 0 263 287 168
0 0 0 0 0 0 0 0 0 0 0 0 0 0 0 0 0 0 0 0 0 0 0 0 0 0 0 0 0 0 0 0 0 0 0 0 0 0 0 0 1 289 342 155
0 0 0 0 0 0 0 0 0 0 0 0 0 0 0 0 0 0 0 0 0 0 0 0 0 6 1 0 24 0 0 0 0 0 0 0 0 0 1 0 8 198 354 29
0 0 0 0 0 0 0 0 0 0 0 0 0 0 0 0 0 0 0 0 0 0 0 0 0 3 0 14 33 6 0 0 2 0 0 0 0 1 2 1 15 8 72 14
0 0 0 0 0 0 0 0 0 0 0 0 0 0 0 0 0 0 0 0 0 0 0 0 0 0 0 0 0 8 0 0 0 0 0 0 0 0 0 9 37 89 8 18
0 0 0 0 0 0 0 0 0 0 0 0 0 0 0 0 0 0 0 0 0 0 0 0 0 0 0 0 0 0 0 0 0 0 0 0 0 0 0 0 0 3 22 7
1 0 0 0 0 0 0 0 0 0 0 0 0 0 0 0 0 0 0 0 0 0 0 0 0 0 0 0 0 0 0 0 0 0 0 0 0 0 0 0 0 0 0 0
0 0 0 0 0 0 0 0 0 0 0 0 0 0 0 0 0 0 0 0 0 0 0 0 0 0 0 0 0 0 0 0 0 0 0 0 0 0 0 0 0 0 0 0
0 0 0 0 0 0 0 0 0 0 0 0 0 0 0 0 0 0 0 0 0 0 0 0 0 0 0 0 0 0 0 0 0 0 0 0 0 0 0 0 0 0 0 0
0 0 0 0 0 0 0 0 0 0 0 0 0 0 0 0 0 0 0 0 0 0 0 0 0 0 0 0 0 0 0 0 0 0 0 0 0 0 0 0 0 0 0 0
0 0 0 0 0 0 0 0 0 0 0 0 0 0 0 0 0 0 0 0 0 0 0 0 0 0 0 0 0 0 0 0 0 0 0 0 0 0 0 0 0 0 0 0
0 0 0 0 0 0 0 0 0 0 0 0 0 0 0 0 0 0 0 0 0 0 0 0 0 0 0 0 0 0 0 0 0 0 0 0 0 0 0 0 0 0 0 0
0 0 0 0 0 0 0 0 0 0 0 0 0 0 0 0 0 0 0 0 0 0 0 0 0 0 0 0 0 0 0 0 0 0 0 0 0 0 0 0 0 0 0 0
0 0 0 0 0 0 0 0 0 0 0 0 0 0 0 0 0 0 0 0 0 0 0 0 0 0 0 0 0 0 0 0 0 0 0 0 0 0 0 0 0 0 0 1
0 0 0 0 0 0 0 0 0 0 0 0 0 0 0 0 0 0 0 0 0 0 0 0 0 0 0 0 0 0 0 0 0 0 0 0 3 11 7 7 8 15 13 14
0 0 0 0 0 0 0 0 0 0 0 0 0 0 0 0 0 0 0 0 0 0 0 0 0 0 0 0 0 0 0 0 0 0 0 1 0 2 0 0 0 0 0 1
0 0 0 0 0 0 0 3 5 0 0 0 0 0 0 0 0 0 0 0 0 0 0 0 0 0 0 0 0 0 0 0 0 0 0 0 0 0 0 0 0 0 0 0
0 0 0 0 0 0 0 0 8 0 0 0 0 0 0 0 0 0 0 0 0 0 0 0 0 0 0 0 0 0 0 0 0 0 0 0 0 0 0 0 0 0 0 0
CIN
-0 -0 -0 -0 -0 -0 -0 -0 -0 -0 -0 -0 -0 -0 -0 -0 -0 -0 -0 -0 -0 -0 -0 -0 -0 -0 -0 -0 -0 -0 -0 -0 -0 -0 -0 -0 -0 -0 -0 -0 -0 -0 -0 -0
-0 -0 -0 -0 -0 -0 -0 -0 -0 -0 -0 -0 -0 -0 -0 -0 -0 -0 -0 -0 -0 -0 -0 -0 -0 -0 -0 -0 -0 -0 -0 -0 -0 -0 -0 -0 -0 -0 -0 -0 -0 -0 -0 -0
-0 -0 -0 -0 -0 -0 -0 -0 -0 -0 -0 -0 -0 -0 -0 -0 -0 -0 -0 -0 -0 -0 -0 -0 -15 -54 -0 -0 -0 -0 -0 -0 -0 -0 -0 -0 -0 -0 -0 -0 -0 -0 -0 -0
-0 -0 -0 -0 -0 -0 -0 -0 -0 -0 -0 -0 -0 -0 -0 -0 -0 -0 -0 -0 -0 -0 -0 -0 -0 -0 -0 -0 -0 -0 -0 -0 -0 -0 -0 -0 -0 -0 -0 -0 -0 -7 -0 -0
-0 -0 -0 -0 -0 -0 -0 -0 -0 -0 -0 -0 -0 -0 -0 -0 -0 -0 -0 -0 -0 -0 -0 -0 -0 -0 -0 -0 -0 -0 -0 -0 -0 -0 -0 -0 -0 -0 -0 -2 -0 -111 -2 -0
-0 -0 -0 -0 -0 -0 -0 -0 -0 -0 -0 -0 -0 -0 -0 -0 -0 -0 -0 -0 -0 -0 -0 -0 -0 -0 -0 -0 -0 -0 -0 -0 -0 -0 -0 -0 -0 -0 -0 -55 -165 -146 -11 -144
-0 -0 -0 -0 -0 -0 -0 -0 -0 -0 -0 -0 -0 -0 -0 -0 -0 -0 -0 -0 -0 -0 -0 -0 -0 -0 -0 -0 -0 -0 -0 -0 -0 -0 -0 -35 -0 -0 -0 -114 -159 -206 -222 -287
-0 -0 -0 -0 -0 -0 -0 -0 -0 -0 -0 -0 -0 -0 -0 -0 -0 -0 -0 -0 -0 -0 -0 -0 -0 -0 -0 -0 -0 -0 -0 -0 -0 -0 -5 -0 -0 -0 -0 -0 -18 -129 -171 -257
-0 -0 -0 -0 -0 -0 -0 -0 -0 -0 -0 -0 -0 -0 -0 -0 -0 -0 -0 -0 -0 -0 -0 -0 -0 -0 -0 -0 -0 -0 -0 -0 -0 -0 -0 -0 -0 -0 -0 -0 -0 -144 -131 -156
-1 -0 -0 -0 -0 -0 -0 -0 -0 -0 -0 -0 -0 -0 -0 -0 -0 -0 -0 -0 -0 -0 -0 -0 -0 -0 -0 -0 -0 -0 -0 -0 -0 -0 -0 -0 -0 -0 -0 -0 -0 -134 -105 -139
-0 -0 -0 -0 -0 -0 -0 -0 -0 -0 -0 -0 -0 -0 -0 -0 -0 -0 -0 -0 -0 -0 -0 -0 -0 -0 -0 -0 -0 -0 -0 -0 -0 -0 -0 -0 -0 -0 -0 -0 -144 -173 -145 -162
-0 -0 -0 -0 -0 -0 -0 -0 -0 -0 -0 -0 -0 -0 -0 -0 -0 -0 -0 -0 -0 -0 -0 -0 -0 -53 -20 -4 -21 -0 -0 -0 -0 -0 -0 -0 -0 -0 -122 -0 -188 -212 -159 -275
-0 -0 -0 -0 -0 -0 -0 -0 -0 -0 -0 -0 -0 -0 -0 -0 -0 -0 -0 -0 -0 -0 -0 -0 -0 -66 -0 -40 -56 -92 -0 -0 -54 -0 -0 -0 -0 -25 -183 -36 -255 -362 -236 -248
-0 -0 -0 -0 -0 -0 -0 -0 -0 -0 -0 -0 -0 -0 -0 -0 -0 -0 -0 -0 -0 -0 -0 -0 -0 -0 -0 -0 -0 -67 -0 -0 -0 -0 -0 -0 -0 -0 -0 -173 -241 -243 -310 -257
-0 -0 -0 -0 -0 -0 -0 -0 -0 -0 -0 -0 -0 -0 -0 -0 -0 -0 -0 -0 -0 -0 -0 -0 -0 -0 -0 -0 -0 -0 -0 -0 -0 -0 -0 -0 -0 -0 -0 -0 -0 -70 -157 -240
-0 -0 -0 -0 -0 -0 -0 -0 -0 -0 -0 -0 -0 -0 -0 -0 -0 -0 -0 -0 -0 -0 -0 -0 -0 -0 -0 -0 -0 -0 -0 -0 -0 -0 -0 -0 -0 -0 -0 -0 -0 -0 -2 -0
-0 -0 -0 -0 -0 -0 -0 -0 -0 -0 -0 -0 -0 -0 -0 -0 -0 -0 -0 -0 -0 -0 -0 -0 -0 -0 -0 -0 -0 -0 -0 -0 -0 -0 -0 -0 -0 -0 -0 -0 -0 -0 -0 -0
-0 -0 -0 -0 -0 -0 -0 -0 -0 -0 -0 -0 -0 -0 -0 -0 -0 -0 -0 -0 -0 -0 -0 -0 -0 -0 -0 -0 -0 -0 -0 -0 -0 -0 -0 -0 -0 -0 -0 -0 -0 -0 -0 -0
-0 -0 -0 -0 -0 -0 -0 -0 -0 -0 -0 -0 -0 -0 -0 -0 -0 -0 -0 -0 -0 -0 -0 -0 -0 -0 -0 -0 -0 -0 -0 -0 -0 -0 -0 -0 -0 -0 -0 -0 -0 -0 -0 -0
-0 -0 -0 -0 -0 -0 -0 -0 -0 -0 -0 -0 -0 -0 -0 -0 -0 -0 -0 -0 -0 -0 -0 -0 -0 -0 -0 -0 -0 -0 -0 -0 -0 -0 -0 -0 -0 -0 -0 -0 -0 -0 -0 -0
-0 -0 -0 -0 -0 -0 -0 -0 -0 -0 -0 -0 -0 -0 -0 -0 -0 -0 -0 -0 -0 -0 -0 -0 -0 -0 -0 -0 -0 -0 -0 -0 -0 -0 -0 -0 -0 -0 -0 -0 -0 -0 -0 -0
-0 -0 -0 -0 -0 -0 -0 -0 -0 -0 -0 -0 -0 -0 -0 -0 -0 -0 -0 -0 -0 -0 -0 -0 -0 -0 -0 -0 -0 -0 -0 -0 -0 -0 -0 -0 -0 -0 -0 -0 -0 -0 -0 -0
-0 -0 -0 -0 -0 -0 -0 -0 -0 -0 -0 -0 -0 -0 -0 -0 -0 -0 -0 -0 -0 -0 -0 -0 -0 -0 -0 -0 -0 -0 -0 -0 -0 -0 -0 -0 -0 -0 -0 -0 -0 -0 -0 -57
-0 -0 -0 -0 -0 -0 -0 -0 -0 -0 -0 -0 -0 -0 -0 -0 -0 -0 -0 -0 -0 -0 -0 -0 -0 -0 -0 -0 -0 -0 -0 -0 -0 -0 -0 -0 -37 -39 -44 -45 -49 -44 -29 -49
-0 -0 -0 -0 -0 -0 -0 -0 -0 -0 -0 -0 -0 -0 -0 -0 -0 -0 -0 -0 -0 -0 -0 -0 -0 -0 -0 -0 -0 -0 -0 -0 -0 -0 -0 -14 -5 -27 -0 -0 -0 -0 -0 -52
-0 -0 -0 -0 -0 -0 -0 -69 -41 -0 -0 -0 -0 -0 -0 -0 -0 -0 -0 -0 -0 -0 -0 -0 -0 -0 -0 -0 -0 -0 -0 -0 -0 -0 -0 -0 -0 -0 -0 -0 -0 -0 -0 -0
-0 -0 -0 -0 -0 -0 -0 -0 -57 -0 -0 -0 -0 -0 -0 -0 -0 -0 -0 -0 -0 -0 -0 -0 -0 -0 -0 -0 -0 -0 -0 -0 -0 -0 -0 -0 -0 -0 -0 -0 -0 -0 -0 -0
Wind_Speed
27 28 26 25 29 27 19 16 15 11 8 11 12 10 12 14 13 14 13 12 12 13 14 14 15 14 15 14 16 18 18 17 23 21 20 18 19 20 21 26 30 27 29 28
26 27 24 19 21 23 17 17 16 10 12 18 15 15 13 14 14 16 14 13 15 14 14 15 15 15 16 15 16 18 18 21 25 24 20 17 18 21 20 21 22 29 31 27
25 26 22 6 25 23 16 15 15 8 6 13 16 15 11 13 16 16 14 14 14 13 15 14 14 14 15 18 17 17 19 21 22 27 22 21 23 23 23 23 25 26 29 23
25 24 23 29 29 19 15 14 14 11 11 13 13 11 10 12 17 16 15 15 15 14 15 14 13 15 14 14 17 17 19 22 18 18 18 19 19 23 25 26 26 27 28 26
24 23 25 28 23 15 17 17 17 12 12 13 8 12 11 12 16 15 15 14 17 15 13 12 12 15 15 16 16 16 17 20 19 22 20 22 19 23 21 21 23 25 23 28
23 23 29 25 21 16 16 13 12 8 12 10 9 11 11 12 15 17 16 17 16 17 17 15 16 15 15 16 16 14 17 16 19 25 24 24 28 24 24 26 24 20 24 24
21 21 26 23 20 17 15 14 11 11 10 10 12 11 12 14 17 14 17 19 17 20 20 15 15 17 14 16 17 16 14 15 17 21 22 32 25 18 17 19 20 22 24 18
18 19 22 20 19 18 14 14 11 10 9 10 10 13 14 16 17 17 16 18 19 20 19 18 19 19 16 17 18 17 15 15 17 18 21 25 27 22 24 19 23 21 19 12
16 17 20 19 19 18 12 13 12 15 8 13 13 14 17 17 18 17 15 18 20 19 19 18 19 19 18 19 18 16 15 15 19 21 22 24 21 23 23 20 29 16 13 10
14 15 20 19 18 16 15 15 15 15 9 14 14 15 16 17 18 16 17 19 19 19 19 20 19 20 18 21 19 19 19 20 22 22 26 25 23 25 20 31 27 13 11 7
11 12 19 18 15 13 15 16 14 18 13 12 15 17 18 17 18 18 16 17 18 19 19 18 18 19 18 18 18 18 18 18 19 19 22 27 22 21 22 21 20 15 15 15
9 10 18 16 15 14 16 17 14 13 13 16 14 19 20 17 16 17 17 14 14 14 16 16 16 19 19 19 22 17 20 18 19 18 17 17 18 17 19 21 21 17 13 14
9 11 18 17 16 14 15 17 16 8 16 14 14 14 9 21 15 12 12 12 13 13 12 12 13 15 15 20 21 20 18 16 18 15 16 16 16 17 18 19 18 15 14 12
9 16 19 17 17 15 15 14 16 11 19 17 14 12 12 7 13 17 15 14 15 15 13 12 11 9 11 16 18 20 20 18 15 19 19 17 15 15 16 15 12 8 6 7
8 21 19 18 17 16 15 13 13 15 18 16 16 14 16 19 22 21 19 16 14 13 13 13 11 11 10 10 15 20 18 18 19 20 17 17 17 19 16 12 11 8 6 7
8 19 19 18 17 17 17 18 19 15 18 14 14 14 14 17 21 24 22 18 16 14 14 13 13 13 13 12 13 18 16 17 17 18 16 16 16 17 17 17 14 10 7 6
14 18 19 18 16 17 18 18 18 18 17 16 15 14 14 13 14 16 17 19 17 15 14 13 13 13 13 12 13 14 9 11 14 15 14 16 17 17 18 19 20 18 17 15
16 17 18 18 17 17 16 16 15 14 11 12 14 14 13 13 14 15 15 14 15 14 14 14 13 13 12 11 11 13 13 10 7 9 14 15 17 18 19 20 19 20 21 20
15 16 17 14 13 15 16 13 12 13 16 12 13 14 12 14 13 14 16 16 17 13 14 13 13 11 10 10 10 12 13 12 11 9 11 16 20 23 23 23 22 22 22 23
14 14 15 13 13 15 11 13 15 16 18 14 8 11 12 13 13 14 14 16 16 14 15 16 13 9 8 9 10 10 11 11 11 10 9 9 14 17 19 22 23 23 23 23
12 15 15 14 14 13 15 16 15 17 18 13 11 8 11 12 13 13 15 15 15 15 14 16 15 14 13 13 14 13 13 12 11 10 12 13 12 12 14 17 19 20 20 21
12 14 14 13 14 15 17 17 17 16 17 12 9 9 11 13 14 15 14 14 14 12 14 15 15 12 12 11 11 12 11 9 8 7 7 9 9 10 12 14 16 18 19 19
12 14 15 15 16 18 19 19 17 16 13 9 9 10 12 13 14 16 15 14 12 14 12 13 12 13 10 8 7 6 6 4 6 7 6 7 7 9 10 11 14 16 17 17
13 13 15 19 18 19 16 15 14 15 13 8 8 10 13 13 14 14 15 14 14 14 13 11 10 12 8 9 6 4 3 2 4 7 9 8 8 10 12 13 15 15 16 17
13 13 17 22 21 19 17 17 18 15 12 6 10 12 12 14 14 13 14 15 13 13 14 13 15 19 17 12 8 7 6 6 9 10 12 12 13 15 17 18 19 20 20 20
14 16 19 21 20 19 16 17 19 12 8 9 11 12 13 11 12 13 12 16 13 17 15 16 18 25 20 18 7 7 9 10 10 11 13 15 16 17 19 20 22 23 23 25
15 19 25 23 22 23 22 16 15 8 5 8 11 11 11 12 13 13 12 17 19 17 13 15 17 20 17 10 8 9 11 8 8 11 13 15 16 18 21 22 22 22 21 22
Wind_Direction
20 20 22 23 316 311 30 59 64 275 281 36 268 285 287 343 349 32 352 340 324 312 307 294 287 282 283 290 290 280 278 276 267 268 277 270 267 261 260 256 254 260 259 263
21 21 26 33 306 315 71 69 68 291 277 120 221 249 286 347 326 351 355 342 320 312 310 298 296 287 291 295 293 282 280 275 268 265 263 273 270 269 266 268 263 253 253 261
22 22 30 313 317 353 69 73 76 287 12 307 278 275 326 1 336 349 0 347 352 343 324 316 306 302 306 294 300 300 289 276 267 260 261 267 266 271 269 263 261 256 257 261
22 25 28 328 335 355 64 50 69 272 308 294 284 298 324 355 339 345 327 355 6 38 354 344 337 312 323 320 306 309 295 274 268 260 266 271 272 273 271 262 265 261 259 261
23 28 24 331 321 4 65 100 99 292 303 292 333 280 313 350 344 331 330 357 1 19 31 48 359 325 327 320 318 310 299 277 268 259 265 268 270 278 278 273 269 269 262 262
23 28 357 329 322 314 52 330 304 19 314 338 1 305 322 345 344 341 345 333 330 329 333 350 325 327 326 334 308 304 291 291 273 261 263 265 261 279 279 271 271 267 261 268
24 29 352 323 324 329 39 9 357 29 355 319 299 326 343 339 338 353 343 339 337 325 333 346 339 328 331 308 312 298 296 293 283 270 263 251 260 288 297 284 273 271 275 273
27 31 338 305 314 315 45 358 15 330 2 303 329 339 346 360 358 352 349 346 345 337 333 317 309 309 317 301 301 300 303 296 287 275 269 270 265 271 268 285 276 284 278 269
30 32 323 295 310 309 351 299 298 240 307 293 345 348 337 345 346 349 356 350 344 349 346 330 307 299 301 296 296 305 302 302 285 274 272 269 278 276 281 284 271 289 283 253
33 32 315 293 299 292 227 221 232 229 346 285 336 13 1 14 6 1 353 343 342 346 339 327 314 303 304 289 290 289 288 287 282 281 272 275 283 283 283 258 265 300 276 242
48 56 277 281 266 249 225 216 244 199 44 336 355 22 15 17 13 1 7 358 349 347 342 335 321 306 301 297 293 290 289 287 282 288 282 272 296 284 276 280 282 294 264 261
85 112 265 248 245 245 227 214 239 255 26 65 65 18 26 42 43 23 12 23 22 26 8 357 341 311 298 291 282 296 283 289 288 286 291 302 300 294 294 291 283 281 266 264
83 108 250 239 236 244 234 225 245 293 86 163 134 119 218 11 45 74 65 58 51 46 58 41 12 339 318 289 283 286 293 295 288 289 290 299 305 299 299 304 299 278 267 257
84 202 238 237 236 245 244 248 238 286 143 152 145 163 117 190 36 65 85 83 67 64 73 76 61 52 351 311 302 286 284 288 289 288 284 291 300 307 305 307 324 333 308 278
57 234 240 237 241 245 244 256 267 254 175 110 108 126 88 67 51 40 48 76 88 95 86 84 98 88 86 8 315 285 287 285 281 287 286 288 288 289 296 313 315 323 315 298
320 244 242 241 247 241 234 234 234 262 216 69 109 131 94 76 49 34 32 49 61 78 84 89 96 96 116 129 147 292 296 295 295 295 294 295 295 295 289 286 296 308 317 302
269 248 242 242 252 247 239 235 234 246 240 132 92 106 112 105 81 72 69 56 68 74 82 86 96 110 111 128 160 155 107 328 307 302 302 296 295 295 293 293 287 286 288 292
258 250 245 247 252 249 257 265 270 267 283 297 110 128 113 86 63 58 72 86 85 86 90 82 84 89 99 115 135 135 133 115 86 337 312 303 298 298 297 298 298 288 284 283
256 251 246 260 269 258 265 282 282 281 263 337 117 129 122 80 83 68 56 53 47 98 75 85 83 96 110 101 108 122 130 120 110 92 353 312 296 292 294 294 295 298 296 287
258 258 259 265 265 258 282 278 267 271 276 328 51 56 79 66 62 61 61 55 52 63 67 65 71 89 140 124 114 99 112 112 86 75 55 16 335 318 309 302 299 295 295 295
272 264 265 264 260 274 277 271 280 278 286 326 355 70 61 56 58 55 50 54 60 57 63 55 61 71 76 101 116 114 110 105 103 81 37 25 14 360 340 323 314 308 306 299
286 275 271 266 274 280 272 270 283 289 295 328 6 27 27 35 35 42 46 45 50 51 44 42 40 60 74 81 113 118 109 92 66 68 52 43 32 8 357 343 329 321 317 312
285 276 268 271 275 274 268 266 278 288 309 339 4 8 15 25 29 28 34 35 47 35 47 33 35 35 55 78 102 122 120 78 35 28 46 28 28 11 1 349 337 330 325 322
294 286 275 262 270 274 279 279 284 295 315 353 6 2 7 18 22 27 29 31 31 34 31 31 41 20 24 20 41 61 121 63 23 11 5 14 10 356 349 340 334 331 324 321
297 291 278 260 267 277 278 275 284 303 326 358 342 345 1 9 15 23 26 21 33 30 24 23 13 356 354 357 3 20 44 34 18 16 11 15 8 359 348 341 335 330 325 319
292 281 270 267 271 268 278 280 276 313 346 344 343 352 4 13 21 16 11 3 11 2 0 3 8 360 356 353 10 35 40 19 20 22 16 10 2 354 347 342 336 329 323 317
289 275 257 264 266 261 264 288 295 347 9 331 345 356 4 17 9 6 9 347 349 357 10 360 355 355 1 20 46 38 27 42 46 30 15 10 10 1 352 346 343 340 337 331